Regional Weather Roundup
Issued by NWS

Home | Current Version | Previous Version | Text Only | Print | Product List | Glossary Off
Versions: 1 2 3 4 5 6 7 8 9 10 11 12 13 14 15 16 17 18 19 20 21 22 23 24 25 26 27 28 29 30 31 32 33 34 35 36 37 38 39 40 41 42 43 44 45 46 47 48 49 50

000
ASUS43 KMKX 222321
RWRWI

WISCONSIN REGIONAL WEATHER ROUNDUP
NATIONAL WEATHER SERVICE MILWAUKEE/SULLIVAN WI
500 PM CST WED FEB 22 2017

NOTE: "FAIR" INDICATES FEW OR NO CLOUDS BELOW 12,000 FEET WITH NO
SIGNIFICANT WEATHER AND/OR OBSTRUCTIONS TO VISIBILITY.

WIZ001-002-006>008-014>016-023>028-230000-
NORTHWEST WISCONSIN

CITY           SKY/WX    TMP DP  RH WIND       PRES   REMARKS
SUPERIOR ARPT  CLOUDY    36  34  91 NE8       29.62R WCI  30
ASHLAND        CLOUDY    35  34  96 NW5       29.62R FOG     WCI  31
HAYWARD        CLOUDY    48  37  65 N6        29.57R
SIREN          CLOUDY    49  45  86 CALM      29.58R
CUMBERLAND     CLOUDY    45  43  93 NE6       29.55R
RICE LAKE      PTCLDY    48  45  88 CALM      29.56S
CHETEK         CLOUDY    49  42  76 CALM      29.55R
LADYSMITH      CLOUDY    50  43  74 W5        29.56R
EAU CLAIRE     MOCLDY    55  40  56 SW5       29.54R
MENOMONIE      PTCLDY    55  42  61 CALM      29.54F
NEW RICHMOND   CLOUDY    52  44  72 NW8       29.57R
OSCEOLA        CLOUDY    48  48 100 NW7       29.60R
$$

WIZ003>005-009-010-017-018-230000-
NORTH CENTRAL WISCONSIN

CITY           SKY/WX    TMP DP  RH WIND       PRES   REMARKS
MANITOWISH WTR CLOUDY    42  42 100 NE3       29.54R
ARBOR VITAE    MOCLDY    44  43  95 NE5         N/A
WOODRUFF       MOCLDY    44  43  95 NE5         N/A
RHINELANDER    CLOUDY    47  44  90 E7        29.52F
EAGLE RIVER    CLOUDY    44  42  94 E5        29.53F
LAND O LAKES   CLOUDY    42  42 100 N6        29.56S FOG
PHILLIPS       CLOUDY    45  44  97 N5        29.53R
TOMAHAWK       CLOUDY    47  40  77 NE5       29.51F
MEDFORD        MOCLDY    50  41  70 SW3       29.54R
MERRILL        NOT AVBL
$$

WIZ029-030-035-036-043>047-230000-
CENTRAL WISCONSIN

CITY           SKY/WX    TMP DP  RH WIND       PRES   REMARKS
WAUSAU         CLOUDY    52  38  58 S6        29.50F
MOSINEE        MOCLDY    50  39  66 S7        29.54R
MARSHFIELD     CLOUDY    51  42  71 S10       29.53R
STEVENS POINT  MOCLDY    53  36  53 NW3       29.55R
WAUPACA        PTCLDY    59  37  43 CALM      29.55R
WAUTOMA        CLOUDY    60  42  51 NW3       29.54R
WISC RAPIDS    MOCLDY    58  37  45 CALM      29.55R
CAMP DOUGLAS   PTCLDY    61  39  44 W6        29.54R
$$

WIZ011>013-019>022-031-037>040-048>050-230000-
NORTHEAST WISCONSIN

CITY           SKY/WX    TMP DP  RH WIND       PRES   REMARKS
ANTIGO         CLOUDY    48  38  68 E10       29.50F
SHAWANO        CLOUDY    51  39  64 NE6       29.53S
OCONTO         CLOUDY    55  42  63 N3        29.55R
STURGEON BAY   CLOUDY    47  43  86 E6        29.57R
GREEN BAY      MOCLDY    58  49  72 N9        29.53R
MANITOWOC      MOCLDY    45  40  82 E5        29.54S
APPLETON       MOCLDY    59  39  47 N8        29.52R
CLINTONVILLE   MOCLDY    55  37  50 N3        29.53F
OSHKOSH        PTCLDY    62  50  64 SW5       29.52R
$$

WIZ032>034-041-042-053>061-230000-
SOUTHWEST WISCONSIN

CITY           SKY/WX    TMP DP  RH WIND       PRES   REMARKS
LA CROSSE      CLEAR     61  41  47 NW8       29.54R
SPARTA         CLEAR     59  40  50 W3        29.54F
VIROQUA        CLEAR     58  41  53 W8        29.54S
BOSCOBEL       CLEAR     70  43  37 W7        29.52R
PRAIRIE DU CHI CLEAR     63  42  44 W7        29.54R
PLATTEVILLE    CLEAR     67  50  54 S15G21    29.54R
$$

WIZ056-057-062-063-064-067-068-230000-
SOUTH CENTRAL WISCONSIN

CITY           SKY/WX    TMP DP  RH WIND       PRES   REMARKS
REEDSBURG      CLEAR     64  46  52 NW6       29.52R
BARABOO/DELLS  CLEAR     65  44  47 SW6       29.52R
LONE ROCK      PTCLDY    69  47  45 SW8       29.52R
MINERAL POINT  CLEAR     68  46  45 SW15G21   29.53R
MADISON        PTCLDY    66  49  54 SW8       29.52R
MIDDLETON      CLEAR     68  49  51 SW8G16    29.53R
WATERTOWN      CLEAR     66  50  55 S13G18    29.51S
MONROE         CLEAR     64  54  68 S18G25    29.54R
JANESVILLE     PTCLDY    68  50  52 S21G26    29.53F
$$

WIZ051-052-058>065-066-070>072-230000-
SOUTHEAST WISCONSIN

CITY           SKY/WX    TMP DP  RH WIND       PRES   REMARKS
MILWAUKEE      PTCLDY    67  51  56 S18G26    29.55F
WAUKESHA       CLEAR     64  48  55 S16G26    29.55F
MILWAUKEE/TIMM CLEAR     66  46  48 S17G23    29.54F
RACINE         CLEAR     60  45  57 SE10      29.58F
KENOSHA        CLEAR     65  50  58 S14       29.57F
FOND DU LAC    PTCLDY    63  46  54 W7        29.51F
SHEBOYGAN      PTCLDY    56  46  69 E6        29.51S
WEST BEND      PTCLDY    64  46  52 S9        29.51F
JUNEAU         PTCLDY    64  49  58 S14       29.52S
$$

LSZ147-162-230000-
LAKE SUPERIOR

STATION/POSITION TIME  TEMP    WIND        PRES    WAVE
                       AIR SEA DIR/SP/G            HT/PER
                 (UTC) (F)     (DEG/KT/KT) (MB)    (FT/S)
DEVILS ISLAND    2300   35      80/ 11/ 12 1003.3F
PORT WING        2240   34      20/ 11/ 14 1002.4S
SAXON HARBOR     2240   33      40/ 10/ 12 1002.0F
$$

LMZ867-665-643>646-230000-
LAKE MICHIGAN

STATION/POSITION TIME  TEMP    WIND        PRES    WAVE
                       AIR SEA DIR/SP/G            HT/PER
                 (UTC) (F)     (DEG/KT/KT) (MB)    (FT/S)
CHAMBERS ISLAND  2230   38     320/  4/  6 1001.4R
NORTHPORT PIER   2230   39     310/  4/  6 1001.4S
SISTER BAY       2150   45     160/  5/  6   N/A
KEWAUNEE LAKESHO 2236   40     170/  9/ 11 1000.5R
SHEBOYGAN LAKESH 2300   44     180/ 17/ 19  999.9R
PORT WASHINGTON  2240   45     180/  9/ 13 1001.4S
MILWAUKEE LAKESH 2300          190/ 19/ 20   N/A
KENOSHA   LAKESH 2300   44     170/ 17/ 20 1001.7
$$

TC  - TEMPERATURE IN CELSIUS
VSB - VISIBILITY IN STATUTE MILES
WCI - WIND CHILL INDEX
HX  - HEAT INDEX




USA.gov is the U.S. government's official web portal to all federal, state and local government web resources and services.